This demonstration page uses our WeatherBlox Daily Observations layout. Learn more.

40.92945, -100.16068

Hourly Observations for April 29, 2017

Temp ( °F °C ) Dew Point ( °F °C ) Humidity (%) Winds ( mph kmh ) Pressure ( in mb ) Visibility ( mi km ) Precip ( " mm )
12:15 am 00:15 Cloudy 39 3.7 33 0.4 79 79 NNE 10 17 30.15 1021 10 16.0934 0 0
12:35 am 00:35 Cloudy 39 4 33 0.4 78 78 NNE 9 15 30.15 1021 10 16.0934 0 0
12:55 am 00:55 Cloudy 39 4 32 0.2 77 77 NE 17 28 30.15 1021 10 16.0934 0 0
1:15 am 01:15 Cloudy 39 3.7 33 0.5 80 80 NNE 13 20 30.15 1021 10 16.0934 0 0
1:35 am 01:35 Cloudy 39 3.7 33 0.5 80 80 NNE 13 20 30.12 1020 10 16.0934 0 0
1:55 am 01:55 Cloudy 39 3.7 33 0.6 80 80 NNE 12 19 30.12 1020 10 16.0934 0 0
2:15 am 02:15 Cloudy 39 4 33 0.5 78 78 NNE 9 15 30.09 1019 10 16.0934 0 0
2:35 am 02:35 Cloudy 39 4 33 0.5 78 78 NNE 12 19 30.09 1019 10 16.0934 0 0
2:55 am 02:55 Cloudy 39 4 33 0.5 78 78 NNE 12 19 30.09 1019 10 16.0934 0 0
3:15 am 03:15 Cloudy 39 4.1 32 0.2 76 76 NNE 13 20 30.09 1019 10 16.0934 0 0
3:35 am 03:35 Cloudy 39 4.1 33 0.4 77 77 NNE 13 20 30.09 1019 10 16.0934 0 0
3:55 am 03:55 Cloudy 39 4 33 0.5 78 78 NNE 12 19 30.09 1019 10 16.0934 0 0
4:15 am 04:15 Cloudy 39 4 33 0.5 78 78 NNE 15 24 30.09 1019 10 16.0934 0 0
4:35 am 04:35 Cloudy 39 4 33 0.3 77 77 NNE 15 24 30.06 1018 10 16.0934 0 0
4:55 am 04:55 Cloudy 39 4.1 32 0.1 75 75 NE 18 30 30.09 1019 10 16.0934 0 0
5:15 am 05:15 Cloudy 39 4.1 32 0.1 75 75 NNE 15 24 30.09 1019 10 16.0934 0 0
5:35 am 05:35 Cloudy 40 4.2 32 0 74 74 NNE 13 20 30.09 1019 10 16.0934 0 0
5:55 am 05:55 Cloudy 40 4.3 32 0 74 74 NNE 13 20 30.12 1020 10 16.0934 0 0
6:15 am 06:15 Cloudy 40 4.2 32 -0.1 74 74 NE 15 24 30.18 1022 10 16.0934 0 0
6:35 am 06:35 Cloudy 40 4.3 31 -0.5 71 71 NE 15 24 30.18 1022 10 16.0934 0 0
6:55 am 06:55 Cloudy 40 4.2 31 -0.5 72 72 NE 13 20 30.18 1022 10 16.0934 0 0
7:15 am 07:15 Cloudy 40 4.2 31 -0.8 70 70 NE 20 31 30.21 1023 10 16.0934 0 0
7:35 am 07:35 Cloudy 39 4.1 30 -1 70 70 ENE 20 31 30.24 1024 10 16.0934 0 0
7:55 am 07:55 Cloudy 40 4.3 29 -1.5 66 66 NE 16 26 30.21 1023 10 16.0934 0 0
8:15 am 08:15 Cloudy 40 4.3 30 -1.2 68 68 NE 15 24 30.18 1022 10 16.0934 0 0
8:35 am 08:35 Cloudy 40 4.3 30 -1 69 69 NNE 17 28 30.12 1020 10 16.0934 0 0
8:55 am 08:55 Mostly Cloudy 40 4.6 31 -0.7 69 69 NNE 15 24 30.15 1021 10 16.0934 0 0
9:15 am 09:15 Cloudy 40 4.7 30 -1 67 67 NNE 14 22 30.15 1021 10 16.0934 0 0
9:35 am 09:35 Cloudy 41 5 30 -1.2 65 65 NNE 16 26 30.15 1021 10 16.0934 0 0
9:55 am 09:55 Cloudy 41 5 30 -1.3 64 64 NNE 17 28 30.15 1021 10 16.0934 0 0
10:15 am 10:15 Cloudy 41 5.1 29 -1.5 63 63 NNE 18 30 30.15 1021 10 16.0934 0 0
10:35 am 10:35 Cloudy 41 5.2 30 -1 65 65 NE 15 24 30.15 1021 10 16.0934 0 0
10:55 am 10:55 Cloudy 41 5.2 30 -1.1 64 64 NNE 17 28 30.12 1020 10 16.0934 0 0
11:15 am 11:15 Cloudy 42 5.5 30 -1.1 63 63 NNE 20 31 30.12 1020 10 16.0934 0 0
11:35 am 11:35 Cloudy 42 5.5 30 -1.2 62 62 NNE 20 31 30.12 1020 10 16.0934 0 0
11:55 am 11:55 Cloudy 42 5.5 30 -1.2 62 62 NNE 23 37 30.15 1021 10 16.0934 0 0
12:15 pm 12:15 Cloudy 42 5.5 30 -1.2 62 62 NNE 21 33 30.15 1021 10 16.0934 0 0
12:35 pm 12:35 Cloudy 42 5.5 30 -1.2 62 62 NNE 20 31 30.15 1021 10 16.0934 0 0
12:55 pm 12:55 Cloudy 42 5.5 30 -1.3 62 62 NNE 22 35 30.15 1021 10 16.0934 0 0
1:15 pm 13:15 Cloudy with Light Rain 42 5.4 29 -1.4 62 62 NNE 22 35 30.15 1021 10 16.0934 0 0
1:35 pm 13:35 Cloudy with Light Rain 41 5 31 -0.3 69 69 NNE 15 24 30.15 1021 10 16.0934 0 0
1:55 pm 13:55 Cloudy with Light Rain 40 4.5 31 -0.4 71 71 NNE 20 31 30.18 1022 7 11.26538 0 0
2:15 pm 14:15 Cloudy with Light Rain 40 4.3 32 0.2 75 75 NNE 17 28 30.18 1022 10 16.0934 0.01 0.254
2:35 pm 14:35 Cloudy with Light Rain 40 4.5 33 0.6 76 76 NNE 23 37 30.18 1022 10 16.0934 0.02 0.508
2:55 pm 14:55 Cloudy with Light Rain 40 4.7 34 1 77 77 NNE 18 30 30.12 1020 10 16.0934 0.02 0.508
3:15 pm 15:15 Cloudy with Light Rain 41 5 34 1.1 76 76 N 23 37 30.12 1020 10 16.0934 0 0
3:35 pm 15:35 Cloudy 42 5.4 34 1.1 74 74 N 21 33 30.12 1020 10 16.0934 0 0
3:55 pm 15:55 Cloudy 42 5.5 33 0.7 72 72 NNE 25 41 30.09 1019 10 16.0934 0 0
4:15 pm 16:15 Cloudy 42 5.5 32 0.2 69 69 NNE 21 33 30.09 1019 10 16.0934 0 0
4:35 pm 16:35 Cloudy 42 5.6 32 0 68 68 NNE 25 41 30.09 1019 10 16.0934 0 0
4:55 pm 16:55 Cloudy 43 6 32 0 66 66 NNE 23 37 30.09 1019 10 16.0934 0 0
5:15 pm 17:15 Cloudy 43 6 32 -0.1 65 65 NNE 18 30 30.09 1019 10 16.0934 0 0
5:35 pm 17:35 Cloudy 43 6 32 -0.2 65 65 NNE 18 30 30.09 1019 10 16.0934 0 0
5:55 pm 17:55 Cloudy 43 6.2 32 -0.2 64 64 NNE 15 24 30.09 1019 10 16.0934 0 0
6:15 pm 18:15 Cloudy 43 6.2 32 -0.1 64 64 NNE 18 30 30.09 1019 10 16.0934 0 0
6:35 pm 18:35 Cloudy with Light Drizzle 43 6.2 32 -0.1 64 64 NNE 14 22 30.09 1019 10 16.0934 0 0
6:55 pm 18:55 Cloudy with Light Drizzle 43 6.2 32 -0.1 64 64 NNE 16 26 30.09 1019 10 16.0934 0 0
7:15 pm 19:15 Cloudy 43 6.3 31 -0.3 63 63 NNE 23 37 30.09 1019 10 16.0934 0 0
7:35 pm 19:35 Cloudy 43 6.2 31 -0.6 62 62 NNE 25 41 30.09 1019 10 16.0934 0 0
7:55 pm 19:55 Cloudy 43 6.1 31 -0.6 63 63 NNE 20 31 30.09 1019 10 16.0934 0 0
8:15 pm 20:15 Cloudy 43 6.1 31 -0.7 62 62 NNE 22 35 30.09 1019 10 16.0934 0 0
8:35 pm 20:35 Cloudy with Light Drizzle 42 5.8 31 -0.3 65 65 NNE 20 31 30.09 1019 10 16.0934 0 0
8:55 pm 20:55 Cloudy 42 5.5 32 -0.1 68 68 NNE 20 31 30.09 1019 10 16.0934 0 0
9:15 pm 21:15 Cloudy with Light Rain 42 5.3 32 0 69 69 NNE 20 31 30.09 1019 10 16.0934 0 0
9:35 pm 21:35 Cloudy with Light Drizzle 41 5.1 32 0 70 70 NNE 20 31 30.09 1019 10 16.0934 0 0
9:55 pm 21:55 Cloudy 41 5.2 31 -0.3 68 68 NNE 16 26 30.09 1019 10 16.0934 0 0
10:15 pm 22:15 Cloudy 42 5.5 30 -1.2 62 62 NNE 23 37 30.09 1019 10 16.0934 0 0
10:35 pm 22:35 Cloudy 41 5.2 28 -2.5 58 58 NNE 26 43 30.09 1019 10 16.0934 0 0
10:55 pm 22:55 Cloudy 41 4.8 28 -2.2 61 61 NNE 28 44 30.12 1020 10 16.0934 0 0
11:15 pm 23:15 Cloudy 40 4.5 29 -1.5 65 65 NE 21 33 30.12 1020 10 16.0934 0 0
11:35 pm 23:35 Cloudy with Light Drizzle 39 3.9 30 -1 71 71 NNE 25 41 30.15 1021 10 16.0934 0 0
11:55 pm 23:55 Cloudy with Light Rain 39 4 29 -1.4 68 68 NNE 25 41 30.09 1019 10 16.0934 0 0

Powered by AerisWeather